STARLINK-34921, 65893

Orbit data source: Space-Track

STARLINK-34921, 65893 is a payload satellite owned by SpaceX/Seattle (US) in LEO that was launched on Tue, 07 Oct 2025 UTC via an FALCON 9 launch vehicle from the Air Force Eastern Test Range (AFETR). Payload-class satellites include a variety of spacecraft equipped with specific instruments for various scientific and technological missions. These include communications satellites like Starlink; space stations such as the ISS; scientific satellites like the Hubble; Earth observation satellites from companies like Planet Labs, Umbra, and HawkEye 360; GPS; miniature CubeSats for education and research; and military/defense satellites.

Loading next visibility...
Identifier
65893, 2025-224M
Orbit
LEO
Country
Flag of USUS
Related business
Manufacturer
SpaceX/Seattle
Mission
Operational spacecraft
Bus & Motor
STARLINK V2MO, Unknown motor
Mass
575 kg wet, ~530 kg dry
Launch date (UTC)
2025-10-07 (2 months ago)
Launch vehicle
FALCON 9
Launch site
Air Force Eastern Test Range (AFETR)
Object type
Payload
Rocket body
Debris
Shape & HBR
Unknown shape, 17.7 m
Radar Cross Section
RCS unknown

Expand to show TLE details & history
Last TLE update: 16 hours ago

TLE from 16 hours ago
0 STARLINK-34921
1 65893U 25224M   25340.56485945  .00064238  00000-0  21610-2 0  9991
2 65893  53.1630  84.0983 0001307  71.0663 289.0479 15.30219685 10614
Epoch: 2025-12-06T13:33Z
TLE epoch observation values (Epoch: 2025-12-06T13:33:23.856Z)
Latitude
-0.00005°
Longitude
165.15808°
Altitude
475.764 km
Speed
7.629 km/s
True Right ascension
05h 36m 23s
True Declination
0° 00' 00"
Sunlit
Object was in full shadow at epoch
Visualization orbit readout
Latitude
Unknown
Longitude
Unknown
Altitude
Unknown
Speed
Unknown
Apparent Right ascension
Unknown
Apparent Declination
Unknown
Sunlit
N/A
Visualization observer readout
Local Sidereal Time
03:11:26
Azimuth
Unknown
Elevation
Unknown
Doppler factor
Unknown
Orbital elements
Apogee altitude
476.308 km
Perigee altitude
474.516 km
Semi-major axis
6,853.549 km
Eccentricity
0.00013
Inclination
53.163°
RAAN
84.0983°
Arg. of periapsis
71.0663°
True anomaly
289.03374°
Mean anomaly
289.0479°
Eccentric anomaly
289.04082°
Mean motion
3.82534 °/min
Orbital period
94.11 mins
BSTAR
0.002161
Loading maneuver chart data...
Computing Atmospheric mass density...
Loading historical data...
Loading historical data...
Loading historical data...
Loading historical data...
Loading historical data...
Loading historical data...
Loading historical data...

Documentation

Showing up to 5 results
|